When you browse on this site, cookies collect data to enhance your experience and personalize the content and advertising you see.
Visit our Privacy Policy to learn more. By continuing to use the site, you agree to this use of cookies and data.
  • In Spain
  • List of Countries
  • For 7 days
  • Water Temperature
  • Weather Map
  • Weather Widgets
  • user-avatar
    Login

    Hourly Weather Reading

    Today, 18 October, Friday

    Time Temperature Precipitation Wind Pressure Humidity
    00:00 +10°C° 0 mm 5 mps 746 mmHg 89%
    01:00 +10°C° 0.8 mm 6 mps 745 mmHg 89%
    02:00 +10°C° 0.8 mm 6 mps 745 mmHg 88%
    03:00 +10°C° 0.8 mm 6 mps 744 mmHg 88%
    04:00 +9°C° 0.2 mm 6 mps 744 mmHg 88%
    05:00 +9°C° 0.2 mm 5 mps 744 mmHg 88%
    06:00 +8°C° 0 mm 4 mps 744 mmHg 90%
    07:00 +9°C° 0 mm 5 mps 745 mmHg 86%
    08:00 +9°C° 0 mm 6 mps 745 mmHg 82%
    09:00 +10°C° 0 mm 7 mps 745 mmHg 77%
    10:00 +11°C° 0.3 mm 8 mps 746 mmHg 76%
    11:00 +12°C° 0.3 mm 8 mps 746 mmHg 74%
    12:00 +12°C° 0.3 mm 9 mps 746 mmHg 72%
    13:00 +12°C° 0.4 mm 9 mps 746 mmHg 72%
    14:00 +12°C° 0.4 mm 8 mps 746 mmHg 72%
    15:00 +12°C° 0.4 mm 8 mps 746 mmHg 72%
    16:00 +11°C° 0.1 mm 7 mps 746 mmHg 75%
    17:00 +10°C° 0.1 mm 7 mps 746 mmHg 78%
    18:00 +9°C° 0.1 mm 6 mps 746 mmHg 82%
    19:00 +9°C° 0 mm 6 mps 746 mmHg 82%
    20:00 +9°C° 0 mm 6 mps 746 mmHg 83%
    21:00 +9°C° 0 mm 6 mps 746 mmHg 83%
    22:00 +9°C° 0 mm 6 mps 745 mmHg 84%
    23:00 +9°C° 0 mm 5 mps 745 mmHg 85%

    Tomorrow, 19 October, Saturday

    Time Temperature Precipitation Wind Pressure Humidity
    00:00 +9°C° 0 mm 5 mps 745 mmHg 85%
    01:00 +9°C° 0 mm 5 mps 745 mmHg 86%
    02:00 +10°C° 0 mm 4 mps 745 mmHg 87%
    03:00 +10°C° 0 mm 4 mps 745 mmHg 87%
    04:00 +8°C° 0 mm 4 mps 745 mmHg 88%
    05:00 +8°C° 0 mm 4 mps 745 mmHg 89%
    06:00 +8°C° 0 mm 4 mps 745 mmHg 90%
    07:00 +9°C° 0 mm 5 mps 746 mmHg 87%
    08:00 +9°C° 0 mm 5 mps 746 mmHg 85%
    09:00 +10°C° 0 mm 5 mps 746 mmHg 82%
    10:00 +12°C° 0 mm 5 mps 746 mmHg 78%
    11:00 +13°C° 0 mm 5 mps 746 mmHg 75%
    12:00 +13°C° 0 mm 5 mps 747 mmHg 71%
    13:00 +13°C° 0.1 mm 5 mps 747 mmHg 71%
    14:00 +13°C° 0.1 mm 4 mps 747 mmHg 71%
    15:00 +13°C° 0.1 mm 4 mps 747 mmHg 71%
    16:00 +12°C° 0 mm 3 mps 747 mmHg 77%
    17:00 +11°C° 0 mm 3 mps 748 mmHg 83%
    18:00 +9°C° 0 mm 2 mps 748 mmHg 90%
    19:00 +9°C° 0 mm 2 mps 749 mmHg 90%
    20:00 +9°C° 0 mm 2 mps 749 mmHg 91%
    21:00 +8°C° 0 mm 2 mps 749 mmHg 92%
    22:00 +8°C° 0 mm 2 mps 750 mmHg 92%
    23:00 +8°C° 0 mm 2 mps 750 mmHg 92%

    Day after tomorrow, 20 October, Sunday

    Time Temperature Precipitation Wind Pressure Humidity
    00:00 +7°C° 0 mm 2 mps 750 mmHg 91%
    01:00 +7°C° 0 mm 2 mps 750 mmHg 92%
    02:00 +7°C° 0 mm 2 mps 750 mmHg 93%
    03:00 +7°C° 0 mm 2 mps 750 mmHg 94%
    04:00 +7°C° 0 mm 2 mps 751 mmHg 94%
    05:00 +7°C° 0 mm 3 mps 751 mmHg 94%
    06:00 +6°C° 0 mm 4 mps 751 mmHg 95%
    07:00 +7°C° 0 mm 5 mps 751 mmHg 92%
    08:00 +8°C° 0 mm 5 mps 752 mmHg 88%
    09:00 +9°C° 0 mm 6 mps 752 mmHg 85%
    10:00 +9°C° 0 mm 6 mps 753 mmHg 84%
    11:00 +9°C° 0 mm 6 mps 753 mmHg 82%
    12:00 +9°C° 0 mm 7 mps 753 mmHg 81%
    13:00 +9°C° 0 mm 7 mps 753 mmHg 79%
    14:00 +9°C° 0 mm 7 mps 753 mmHg 77%
    15:00 +9°C° 0 mm 7 mps 753 mmHg 75%
    16:00 +9°C° 0 mm 6 mps 754 mmHg 75%
    17:00 +8°C° 0 mm 6 mps 754 mmHg 76%
    18:00 +8°C° 0 mm 6 mps 754 mmHg 77%
    19:00 +8°C° 0 mm 6 mps 755 mmHg 78%
    20:00 +8°C° 0 mm 6 mps 755 mmHg 80%
    21:00 +8°C° 0 mm 7 mps 755 mmHg 82%
    22:00 +8°C° 0 mm 6 mps 755 mmHg 83%
    23:00 +7°C° 0 mm 6 mps 755 mmHg 85%

    21 October, Monday

    Time Temperature Precipitation Wind Pressure Humidity
    00:00 +7°C° 0 mm 6 mps 755 mmHg 86%
    01:00 +8°C° 0 mm 6 mps 756 mmHg 87%
    02:00 +8°C° 0 mm 5 mps 756 mmHg 88%
    03:00 +8°C° 0 mm 5 mps 756 mmHg 89%
    04:00 +8°C° 0.1 mm 5 mps 756 mmHg 90%
    05:00 +8°C° 0.1 mm 5 mps 757 mmHg 91%
    06:00 +8°C° 0.1 mm 5 mps 757 mmHg 92%
    07:00 +8°C° 0.1 mm 5 mps 758 mmHg 90%
    08:00 +9°C° 0.1 mm 6 mps 759 mmHg 87%
    09:00 +9°C° 0.1 mm 6 mps 759 mmHg 85%
    10:00 +10°C° 0 mm 6 mps 760 mmHg 83%
    11:00 +10°C° 0 mm 5 mps 760 mmHg 81%
    12:00 +12°C° 0 mm 5 mps 761 mmHg 78%
    13:00 +12°C° 0.1 mm 5 mps 761 mmHg 79%
    14:00 +10°C° 0.1 mm 5 mps 761 mmHg 80%
    15:00 +10°C° 0.1 mm 6 mps 762 mmHg 82%
    16:00 +10°C° 0 mm 5 mps 762 mmHg 83%
    17:00 +9°C° 0 mm 5 mps 763 mmHg 84%
    18:00 +10°C° 0 mm 4 mps 763 mmHg 85%
    19:00 +10°C° 0 mm 4 mps 763 mmHg 86%
    20:00 +10°C° 0 mm 4 mps 764 mmHg 86%
    21:00 +9°C° 0 mm 3 mps 764 mmHg 86%
    22:00 +9°C° 0 mm 3 mps 764 mmHg 88%
    23:00 +8°C° 0 mm 3 mps 764 mmHg 90%

    22 October, Tuesday

    Time Temperature Precipitation Wind Pressure Humidity
    00:00 +8°C° 0 mm 3 mps 764 mmHg 92%
    01:00 +7°C° 0 mm 2 mps 764 mmHg 93%
    02:00 +7°C° 0 mm 2 mps 764 mmHg 93%
    03:00 +7°C° 0 mm 2 mps 764 mmHg 94%
    04:00 +7°C° 0 mm 2 mps 764 mmHg 93%
    05:00 +6°C° 0 mm 2 mps 765 mmHg 93%
    06:00 +7°C° 0 mm 1 mps 765 mmHg 93%
    07:00 +7°C° 0 mm 2 mps 765 mmHg 90%
    08:00 +8°C° 0 mm 2 mps 765 mmHg 87%
    09:00 +9°C° 0 mm 2 mps 765 mmHg 84%
    10:00 +10°C° 0 mm 2 mps 765 mmHg 79%
    11:00 +13°C° 0 mm 2 mps 765 mmHg 73%
    12:00 +14°C° 0 mm 2 mps 764 mmHg 68%
    13:00 +14°C° 0 mm 2 mps 764 mmHg 68%
    14:00 +14°C° 0 mm 2 mps 763 mmHg 69%
    15:00 +14°C° 0 mm 2 mps 763 mmHg 70%
    16:00 +13°C° 0 mm 2 mps 763 mmHg 76%
    17:00 +12°C° 0 mm 2 mps 763 mmHg 82%
    18:00 +10°C° 0 mm 2 mps 762 mmHg 88%
    19:00 +11°C° 0 mm 1 mps 762 mmHg 89%
    20:00 +11°C° 0 mm 1 mps 762 mmHg 91%
    21:00 +11°C° 0 mm 1 mps 762 mmHg 92%
    22:00 +10°C° 0 mm 1 mps 762 mmHg 93%
    23:00 +10°C° 0 mm 1 mps 762 mmHg 94%

    23 October, Wednesday

    Time Temperature Precipitation Wind Pressure Humidity
    00:00 +10°C° 0 mm 1 mps 761 mmHg 95%
    01:00 +10°C° 0 mm 1 mps 761 mmHg 95%
    02:00 +10°C° 0 mm 1 mps 761 mmHg 95%
    03:00 +9°C° 0 mm 1 mps 760 mmHg 96%
    04:00 +9°C° 0 mm 1 mps 760 mmHg 96%
    05:00 +9°C° 0 mm 1 mps 760 mmHg 96%
    06:00 +8°C° 0 mm 0 mps 759 mmHg 96%
    07:00 +9°C° 0 mm 0 mps 759 mmHg 93%
    08:00 +10°C° 0 mm 0 mps 759 mmHg 91%
    09:00 +11°C° 0 mm 0 mps 758 mmHg 89%
    10:00 +13°C° 0 mm 1 mps 758 mmHg 85%
    11:00 +14°C° 0 mm 1 mps 758 mmHg 81%
    12:00 +15°C° 0 mm 1 mps 758 mmHg 77%
    13:00 +15°C° 0 mm 1 mps 757 mmHg 77%
    14:00 +15°C° 0 mm 1 mps 757 mmHg 76%
    15:00 +15°C° 0 mm 1 mps 756 mmHg 76%
    16:00 +14°C° 0 mm 1 mps 756 mmHg 80%
    17:00 +12°C° 0 mm 1 mps 756 mmHg 84%
    18:00 +11°C° 0 mm 1 mps 756 mmHg 88%
    19:00 +11°C° 0 mm 1 mps 756 mmHg 89%
    20:00 +10°C° 0 mm 1 mps 757 mmHg 90%
    21:00 +10°C° 0 mm 1 mps 757 mmHg 91%
    22:00 +8°C° 0 mm 2 mps 757 mmHg 91%
    23:00 +8°C° 0 mm 2 mps 757 mmHg 91%
    Show more